"Datum/tijd (MEZT)";"astronomisch [cm]";"verwachting RWS";"waterstand [cm]"
2024-05-07 01:00;17;19;19
2024-05-07 01:10;35;31;33
2024-05-07 01:20;56;52;51
2024-05-07 01:30;77;75;76
2024-05-07 01:40;97;100;107
2024-05-07 01:50;115;123;136
2024-05-07 02:00;128;142;159
2024-05-07 02:10;137;156;171
2024-05-07 02:20;140;164;171
2024-05-07 02:30;137;164;162
2024-05-07 02:40;131;157;149
2024-05-07 02:50;122;144;135
2024-05-07 03:00;111;130;121
2024-05-07 03:10;101;116;111
2024-05-07 03:20;92;105;103
2024-05-07 03:30;85;96;100
2024-05-07 03:40;80;90;99
2024-05-07 03:50;78;88;98
2024-05-07 04:00;77;88;97
2024-05-07 04:10;76;88;94
2024-05-07 04:20;74;87;88
2024-05-07 04:30;70;82;79
2024-05-07 04:40;65;76;70
2024-05-07 04:50;58;67;59
2024-05-07 05:00;48;57;48
2024-05-07 05:10;38;47;38
2024-05-07 05:20;26;36;33
2024-05-07 05:30;14;29;22
2024-05-07 05:40;2;19;15
2024-05-07 05:50;-10;9;4
2024-05-07 06:00;-21;-1;-9
2024-05-07 06:10;-32;-10;-18
2024-05-07 06:20;-43;-20;-30
2024-05-07 06:30;-54;-29;-41
2024-05-07 06:40;-64;-37;-50
2024-05-07 06:50;-74;-46;-59
2024-05-07 07:00;-83;-54;-66
2024-05-07 07:10;-92;-61;-73
2024-05-07 07:20;-99;-68;-80
2024-05-07 07:30;-104;-75;-85
2024-05-07 07:40;-108;-81;-91
2024-05-07 07:50;-110;-86;-96
2024-05-07 08:00;-111;-90;-99
2024-05-07 08:10;-111;-94;-102
2024-05-07 08:20;-109;-97;-103
2024-05-07 08:30;-107;-99;-103
2024-05-07 08:40;-104;-100;-100
2024-05-07 08:50;-100;-99;-95
2024-05-07 09:00;-97;-102;-90
2024-05-07 09:10;-93;-98;-82
2024-05-07 09:20;-89;-92;-76
2024-05-07 09:30;-86;-88;-72
2024-05-07 09:40;-83;-86;-70
2024-05-07 09:50;-80;-85;-69
2024-05-07 10:00;-79;-84;-69
2024-05-07 10:10;-79;-83;-71
2024-05-07 10:20;-80;-83;-72
2024-05-07 10:30;-81;-84;-72
2024-05-07 10:40;-83;-84;-73
2024-05-07 10:50;-85;-85;-73
2024-05-07 11:00;-87;-85;-72
2024-05-07 11:10;-87;-85;-72
2024-05-07 11:20;-85;-84;-71
2024-05-07 11:30;-83;-83;-69
2024-05-07 11:40;-79;-81;-67
2024-05-07 11:50;-74;-79;-63
2024-05-07 12:00;-69;-75;-61
2024-05-07 12:10;-63;-70;-56
2024-05-07 12:20;-57;-63;-51
2024-05-07 12:30;-50;-56;-45
2024-05-07 12:40;-42;-47;-38
2024-05-07 12:50;-31;-36;-29
2024-05-07 13:00;-18;-25;-19
2024-05-07 13:10;-2;-13;-6
2024-05-07 13:20;18;2;9
2024-05-07 13:30;41;18;26
2024-05-07 13:40;66;34;51
2024-05-07 13:50;92;66;82
2024-05-07 14:00;117;97;121
2024-05-07 14:10;138;130;157
2024-05-07 14:20;155;159;184
2024-05-07 14:30;166;181;
2024-05-07 14:40;171;192;199
2024-05-07 14:50;170;191;189
2024-05-07 15:00;164;190;174
2024-05-07 15:10;154;174;156
2024-05-07 15:20;142;155;137
2024-05-07 15:30;130;136;122
2024-05-07 15:40;120;119;114
2024-05-07 15:50;112;107;114
2024-05-07 16:00;106;101;117
2024-05-07 16:10;103;100;120
2024-05-07 16:20;101;103;122
2024-05-07 16:30;100;108;118
2024-05-07 16:40;98;112;113
2024-05-07 16:50;95;112;105
2024-05-07 17:00;90;108;95
2024-05-07 17:10;84;99;85
2024-05-07 17:20;76;86;77
2024-05-07 17:30;66;74;68
2024-05-07 17:40;56;61;59
2024-05-07 17:50;46;49;49
2024-05-07 18:00;35;40;40
2024-05-07 18:10;25;33;32
2024-05-07 18:20;15;24;25
2024-05-07 18:30;4;15;15
2024-05-07 18:40;-7;6;4
2024-05-07 18:50;-18;-3;-7
2024-05-07 19:00;-29;-12;-17
2024-05-07 19:10;-40;-21;-28
2024-05-07 19:20;-51;-29;-36
2024-05-07 19:30;-60;-37;-43
2024-05-07 19:40;-69;-44;-50
2024-05-07 19:50;-75;-51;-55
2024-05-07 20:00;-79;-56;-60
2024-05-07 20:10;-82;-61;-63
2024-05-07 20:20;-82;-64;-66
2024-05-07 20:30;-81;-67;-68
2024-05-07 20:40;-79;-69;-67
2024-05-07 20:50;-77;-68;-65
2024-05-07 21:00;-74;-66;-61
2024-05-07 21:10;-70;-62;-54
2024-05-07 21:20;-67;-56;-47
2024-05-07 21:30;-64;-51;-43
2024-05-07 21:40;-61;-48;-40
2024-05-07 21:50;-58;-47;-38
2024-05-07 22:00;-56;-47;-37
2024-05-07 22:10;-55;-48;-39
2024-05-07 22:20;-54;-50;-42
2024-05-07 22:30;-55;-51;-46
2024-05-07 22:40;-56;-53;-46
2024-05-07 22:50;-58;-54;-48
2024-05-07 23:00;-60;-54;-49
2024-05-07 23:10;-62;-54;-49
2024-05-07 23:20;-63;-53;-48
2024-05-07 23:30;-62;-52;-46
2024-05-07 23:40;-61;-50;-44
2024-05-07 23:50;-58;-48;-42
2024-05-08 00:00;-54;-46;-40
2024-05-08 00:10;-50;-43;-35
2024-05-08 00:20;-46;-40;-33
2024-05-08 00:30;-43;-37;-32
2024-05-08 00:40;-40;-33;-30
2024-05-08 00:50;-37;-29;-27
2024-05-08 01:00;-33;-25;-24
2024-05-08 01:10;-28;-20;-19
2024-05-08 01:20;-20;-14;-13
2024-05-08 01:30;-8;-6;-6
2024-05-08 01:40;7;4;3
2024-05-08 01:50;27;15;15
2024-05-08 02:00;50;24;28
2024-05-08 02:10;75;40;52
2024-05-08 02:20;99;62;80
2024-05-08 02:30;121;89;117
2024-05-08 02:40;139;117;151
2024-05-08 02:50;151;141;173
2024-05-08 03:00;157;159;180
2024-05-08 03:10;155;168;176
2024-05-08 03:20;149;167;165
2024-05-08 03:30;138;157;148
2024-05-08 03:40;126;143;131
2024-05-08 03:50;113;127;118
2024-05-08 04:00;102;113;107
2024-05-08 04:10;93;101;100
2024-05-08 04:20;88;92;99
2024-05-08 04:30;85;87;101
2024-05-08 04:40;85;85;101
2024-05-08 04:50;85;84;100
2024-05-08 05:00;84;84;96
2024-05-08 05:10;82;82;89
2024-05-08 05:20;78;77;79
2024-05-08 05:30;71;71;68
2024-05-08 05:40;62;62;56
2024-05-08 05:50;50;51;44
2024-05-08 06:00;38;40;34
2024-05-08 06:10;25;29;29
2024-05-08 06:20;12;21;18
2024-05-08 06:30;-1;10;9
2024-05-08 06:40;-12;0;-5
2024-05-08 06:50;-24;-10;-15
2024-05-08 07:00;-35;-19;-24
2024-05-08 07:10;-45;-29;-37
2024-05-08 07:20;-56;-38;-48
2024-05-08 07:30;-66;-47;-57
2024-05-08 07:40;-76;-55;-67
2024-05-08 07:50;-85;-64;-74
2024-05-08 08:00;-92;-71;-81
2024-05-08 08:10;-99;-78;-87
2024-05-08 08:20;-104;-85;-93
2024-05-08 08:30;-107;-91;-98
2024-05-08 08:40;-109;-96;-102
2024-05-08 08:50;-109;-101;-106
2024-05-08 09:00;-108;-108;-106
2024-05-08 09:10;-106;-110;-106
2024-05-08 09:20;-104;-111;-105
2024-05-08 09:30;-101;-110;-100
2024-05-08 09:40;-97;-107;-93
2024-05-08 09:50;-93;-103;-86
2024-05-08 10:00;-89;-97;-80
2024-05-08 10:10;-84;-89;-75
2024-05-08 10:20;-81;-84;-73
2024-05-08 10:30;-78;-82;-72
2024-05-08 10:40;-76;-81;-72
2024-05-08 10:50;-76;-81;-73
2024-05-08 11:00;-77;-82;
2024-05-08 11:10;-78;-84;-75
2024-05-08 11:20;-80;-86;-75
2024-05-08 11:30;-83;-87;-75
2024-05-08 11:40;-84;-88;-76
2024-05-08 11:50;-84;-88;-76
2024-05-08 12:00;-83;-87;-75
2024-05-08 12:10;-81;-87;-76
2024-05-08 12:20;-77;-86;-74
2024-05-08 12:30;-73;-84;-72
2024-05-08 12:40;-69;-81;-69
2024-05-08 12:50;-64;-77;-65
2024-05-08 13:00;-60;-72;-61
2024-05-08 13:10;-56;-66;-55
2024-05-08 13:20;-51;-60;-49
2024-05-08 13:30;-44;-52;-42
2024-05-08 13:40;-34;-43;-33
2024-05-08 13:50;-20;-32;-23
2024-05-08 14:00;-1;-7;-10
2024-05-08 14:10;22;7;
2024-05-08 14:20;48;21;21
2024-05-08 14:30;76;42;46
2024-05-08 14:40;104;66;82
2024-05-08 14:50;129;96;125
2024-05-08 15:00;150;129;
2024-05-08 15:10;165;159;188
2024-05-08 15:20;172;178;196
2024-05-08 15:30;173;186;194
2024-05-08 15:40;168;183;180
2024-05-08 15:50;158;172;162
2024-05-08 16:00;145;153;142
2024-05-08 16:10;132;132;124
2024-05-08 16:20;120;113;111
2024-05-08 16:30;111;99;105
2024-05-08 16:40;104;89;102
2024-05-08 16:50;100;84;105
2024-05-08 17:00;99;84;108
2024-05-08 17:10;98;87;108
2024-05-08 17:20;97;91;105
2024-05-08 17:30;95;94;96
2024-05-08 17:40;91;93;86
2024-05-08 17:50;85;87;77
2024-05-08 18:00;77;78;68
2024-05-08 18:10;67;67;59
2024-05-08 18:20;57;55;51
2024-05-08 18:30;46;42;42
2024-05-08 18:40;35;29;30
2024-05-08 18:50;24;22;25
2024-05-08 19:00;13;12;12
2024-05-08 19:10;3;2;4
2024-05-08 19:20;-8;-8;-7
2024-05-08 19:30;-19;-17;-19
2024-05-08 19:40;-31;-26;-28
2024-05-08 19:50;-42;-34;-40
2024-05-08 20:00;-53;-41;-48
2024-05-08 20:10;-63;-48;-56
2024-05-08 20:20;-72;-55;-65
2024-05-08 20:30;-78;-61;-71
2024-05-08 20:40;-83;-67;-75
2024-05-08 20:50;-86;-72;-80
2024-05-08 21:00;-87;-76;-83
2024-05-08 21:10;-87;-80;
2024-05-08 21:20;-85;-84;
2024-05-08 21:30;-82;-86;
2024-05-08 21:40;-79;-86;
2024-05-08 21:50;-76;-84;
2024-05-08 22:00;-72;-80;
2024-05-08 22:10;-68;-74;
2024-05-08 22:20;-65;-66;
2024-05-08 22:30;-61;-60;
2024-05-08 22:40;-59;-56;
2024-05-08 22:50;-57;-53;
2024-05-08 23:00;-57;-53;
2024-05-08 23:10;-58;-54;
2024-05-08 23:20;-59;-57;
2024-05-08 23:30;-62;-60;
2024-05-08 23:40;-64;-63;
2024-05-08 23:50;-66;-67;
2024-05-09 00:00;-67;-69;
2024-05-09 00:10;-67;-71;
2024-05-09 00:20;-64;-72;
2024-05-09 00:30;-61;-72;
2024-05-09 00:40;-56;-72;
2024-05-09 00:50;-51;-70;
2024-05-09 01:00;-46;-65;
2024-05-09 01:10;-42;-57;
2024-05-09 01:20;-39;-49;
2024-05-09 01:30;-36;-41;
2024-05-09 01:40;-33;-34;
2024-05-09 01:50;-29;-28;
2024-05-09 02:00;-22;-21;
2024-05-09 02:10;-11;-13;
2024-05-09 02:20;4;-4;
2024-05-09 02:30;23;7;
2024-05-09 02:40;47;19;
2024-05-09 02:50;73;31;
2024-05-09 03:00;100;58;
2024-05-09 03:10;125;85;
2024-05-09 03:20;145;113;
2024-05-09 03:30;160;138;
2024-05-09 03:40;167;158;
2024-05-09 03:50;168;169;
2024-05-09 04:00;162;169;
2024-05-09 04:10;151;159;
2024-05-09 04:20;138;143;
2024-05-09 04:30;124;126;
2024-05-09 04:40;111;111;
2024-05-09 04:50;102;98;
2024-05-09 05:00;96;89;
2024-05-09 05:10;93;84;
2024-05-09 05:20;92;81;
2024-05-09 05:30;93;80;
2024-05-09 05:40;93;80;
2024-05-09 05:50;92;78;
2024-05-09 06:00;88;73;
2024-05-09 06:10;82;67;
2024-05-09 06:20;73;59;
2024-05-09 06:30;61;50;
2024-05-09 06:40;49;39;
2024-05-09 06:50;35;28;
2024-05-09 07:00;21;23;
2024-05-09 07:10;8;13;
2024-05-09 07:20;-4;4;
2024-05-09 07:30;-16;-6;
2024-05-09 07:40;-27;-15;
2024-05-09 07:50;-37;-24;
2024-05-09 08:00;-47;-32;
2024-05-09 08:10;-57;-41;
2024-05-09 08:20;-67;-49;
2024-05-09 08:30;-76;-56;
2024-05-09 08:40;-83;-64;
2024-05-09 08:50;-90;-70;
2024-05-09 09:00;-95;-76;
2024-05-09 09:10;-99;-82;
2024-05-09 09:20;-101;-87;
2024-05-09 09:30;-103;-91;
2024-05-09 09:40;-102;-95;
2024-05-09 09:50;-101;-97;
2024-05-09 10:00;-100;-99;
2024-05-09 10:10;-97;-99;
2024-05-09 10:20;-94;-97;
2024-05-09 10:30;-90;-93;
2024-05-09 10:40;-86;-88;
2024-05-09 10:50;-82;-83;
2024-05-09 11:00;-78;-80;
2024-05-09 11:10;-76;-79;
2024-05-09 11:20;-74;-79;
2024-05-09 11:30;-74;-80;
2024-05-09 11:40;-75;-81;
2024-05-09 11:50;-77;-82;
2024-05-09 12:00;-79;-82;
2024-05-09 12:10;-82;-83;
2024-05-09 12:20;-84;-82;
2024-05-09 12:30;-84;-82;
2024-05-09 12:40;-83;-82;
2024-05-09 12:50;-80;-81;
2024-05-09 13:00;-76;-79;
2024-05-09 13:10;-72;-77;
2024-05-09 13:20;-67;-75;
2024-05-09 13:30;-63;-73;
2024-05-09 13:40;-60;-69;
2024-05-09 13:50;-57;-64;
2024-05-09 14:00;-53;-57;
2024-05-09 14:10;-48;-49;
2024-05-09 14:20;-40;-41;
2024-05-09 14:30;-29;-31;
2024-05-09 14:40;-12;-19;
2024-05-09 14:50;8;-7;
2024-05-09 15:00;33;7;
2024-05-09 15:10;61;21;
2024-05-09 15:20;89;51;
2024-05-09 15:30;116;80;
2024-05-09 15:40;139;111;
2024-05-09 15:50;155;141;
2024-05-09 16:00;165;166;
2024-05-09 16:10;168;180;
2024-05-09 16:20;164;181;
2024-05-09 16:30;155;170;
2024-05-09 16:40;143;153;
2024-05-09 16:50;130;134;
2024-05-09 17:00;118;118;
2024-05-09 17:10;108;104;
2024-05-09 17:20;101;95;
2024-05-09 17:30;97;88;
2024-05-09 17:40;96;85;
2024-05-09 17:50;95;85;
2024-05-09 18:00;95;87;
2024-05-09 18:10;93;87;
2024-05-09 18:20;90;86;
2024-05-09 18:30;84;82;
2024-05-09 18:40;76;75;
2024-05-09 18:50;67;65;
2024-05-09 19:00;56;55;
2024-05-09 19:10;45;44;
2024-05-09 19:20;33;33;
2024-05-09 19:30;22;27;
2024-05-09 19:40;11;18;
2024-05-09 19:50;0;9;
2024-05-09 20:00;-11;0;
2024-05-09 20:10;-22;-9;
2024-05-09 20:20;-33;-17;
2024-05-09 20:30;-44;-25;
2024-05-09 20:40;-55;-33;
2024-05-09 20:50;-65;-40;
2024-05-09 21:00;-74;-47;
2024-05-09 21:10;-81;-54;
2024-05-09 21:20;-86;-60;
2024-05-09 21:30;-90;-65;
2024-05-09 21:40;-91;-69;
2024-05-09 21:50;-91;-73;
2024-05-09 22:00;-90;-75;
2024-05-09 22:10;-88;-76;
2024-05-09 22:20;-85;-75;
2024-05-09 22:30;-81;-72;
2024-05-09 22:40;-77;-67;
2024-05-09 22:50;-74;-62;
2024-05-09 23:00;-70;-57;
2024-05-09 23:10;-66;-55;
2024-05-09 23:20;-64;-54;
2024-05-09 23:30;-62;-55;
2024-05-09 23:40;-62;-56;
2024-05-09 23:50;-63;-58;
2024-05-10 00:00;-65;-60;
2024-05-10 00:10;-68;-61;
2024-05-10 00:20;-71;-63;
2024-05-10 00:30;-74;-63;
2024-05-10 00:40;-76;-63;
2024-05-10 00:50;-76;-62;
2024-05-10 01:00;-73;-59;
2024-05-10 01:10;-69;-56;
2024-05-10 01:20;-64;-53;
2024-05-10 01:30;-57;-49;
2024-05-10 01:40;-51;-45;
2024-05-10 01:50;-45;-41;
2024-05-10 02:00;-41;-37;
2024-05-10 02:10;-37;-33;
2024-05-10 02:20;-33;-28;
2024-05-10 02:30;-28;-22;
2024-05-10 02:40;-21;-15;
2024-05-10 02:50;-11;-6;
2024-05-10 03:00;4;3;
2024-05-10 03:10;23;14;
2024-05-10 03:20;46;24;
2024-05-10 03:30;72;46;
2024-05-10 03:40;99;70;
2024-05-10 03:50;124;97;
2024-05-10 04:00;146;124;
2024-05-10 04:10;162;150;
2024-05-10 04:20;171;170;
2024-05-10 04:30;172;181;
2024-05-10 04:40;168;181;
2024-05-10 04:50;158;171;
2024-05-10 05:00;145;155;
2024-05-10 05:10;132;138;
2024-05-10 05:20;119;123;
2024-05-10 05:30;109;111;
2024-05-10 05:40;103;102;
2024-05-10 05:50;99;96;
2024-05-10 06:00;98;93;
2024-05-10 06:10;99;93;
2024-05-10 06:20;99;94;
2024-05-10 06:30;99;92;
2024-05-10 06:40;96;88;
2024-05-10 06:50;90;82;
2024-05-10 07:00;81;74;
2024-05-10 07:10;70;65;
2024-05-10 07:20;57;54;
2024-05-10 07:30;44;43;
2024-05-10 07:40;30;36;
2024-05-10 07:50;17;27;
2024-05-10 08:00;5;18;
2024-05-10 08:10;-7;8;
2024-05-10 08:20;-17;-1;
2024-05-10 08:30;-28;-9;
2024-05-10 08:40;-38;-18;
2024-05-10 08:50;-47;-26;
2024-05-10 09:00;-56;-34;
2024-05-10 09:10;-65;-41;
2024-05-10 09:20;-73;-48;
2024-05-10 09:30;-79;-54;
2024-05-10 09:40;-85;-60;
2024-05-10 09:50;-89;-66;
2024-05-10 10:00;-91;-71;
2024-05-10 10:10;-93;-75;
2024-05-10 10:20;-94;-78;
2024-05-10 10:30;-93;-81;
2024-05-10 10:40;-92;-83;
2024-05-10 10:50;-90;-84;
2024-05-10 11:00;-88;-84;
2024-05-10 11:10;-85;-82;
2024-05-10 11:20;-81;-80;
2024-05-10 11:30;-78;-77;
2024-05-10 11:40;-75;-74;
2024-05-10 11:50;-73;-72;
2024-05-10 12:00;-71;-72;
2024-05-10 12:10;-71;-72;
2024-05-10 12:20;-73;-72;
2024-05-10 12:30;-75;-73;
2024-05-10 12:40;-78;-73;
2024-05-10 12:50;-81;-74;
2024-05-10 13:00;-84;-74;
2024-05-10 13:10;-85;-74;
2024-05-10 13:20;-84;-74;
2024-05-10 13:30;-81;-73;
2024-05-10 13:40;-77;-72;
2024-05-10 13:50;-72;-71;
2024-05-10 14:00;-67;-70;
2024-05-10 14:10;-62;-68;
2024-05-10 14:20;-58;-66;
2024-05-10 14:30;-54;-63;
2024-05-10 14:40;-51;-59;
2024-05-10 14:50;-46;-53;
2024-05-10 15:00;-39;-44;
2024-05-10 15:10;-30;-34;
2024-05-10 15:20;-16;-24;
2024-05-10 15:30;3;-13;
2024-05-10 15:40;25;1;
2024-05-10 15:50;50;15;
2024-05-10 16:00;76;38;
2024-05-10 16:10;102;64;
2024-05-10 16:20;124;93;
2024-05-10 16:30;141;121;
2024-05-10 16:40;151;145;
2024-05-10 16:50;156;162;
2024-05-10 17:00;154;168;
2024-05-10 17:10;147;162;
2024-05-10 17:20;137;147;
2024-05-10 17:30;125;130;
2024-05-10 17:40;114;114;
2024-05-10 17:50;105;101;
2024-05-10 18:00;98;90;
2024-05-10 18:10;94;82;
2024-05-10 18:20;92;78;
2024-05-10 18:30;91;76;
2024-05-10 18:40;91;76;
2024-05-10 18:50;89;76;
2024-05-10 19:00;86;74;
2024-05-10 19:10;80;69;
2024-05-10 19:20;73;62;
2024-05-10 19:30;64;55;
2024-05-10 19:40;53;46;
2024-05-10 19:50;42;37;
2024-05-10 20:00;31;27;
2024-05-10 20:10;19;23;
2024-05-10 20:20;8;14;
2024-05-10 20:30;-3;5;
2024-05-10 20:40;-13;-4;
2024-05-10 20:50;-24;-12;
2024-05-10 21:00;-35;-20;
2024-05-10 21:10;-46;-28;
2024-05-10 21:20;-57;-35;
2024-05-10 21:30;-66;-42;
2024-05-10 21:40;-75;-49;
2024-05-10 21:50;-82;-55;
2024-05-10 22:00;-88;-61;
2024-05-10 22:10;-92;-66;
2024-05-10 22:20;-94;-70;
2024-05-10 22:30;-94;-74;
2024-05-10 22:40;-94;-77;
2024-05-10 22:50;-92;-80;
2024-05-10 23:00;-90;-81;
2024-05-10 23:10;-87;-81;
2024-05-10 23:20;-84;-80;
2024-05-10 23:30;-80;-77;
2024-05-10 23:40;-76;-75;
2024-05-10 23:50;-73;-72;
2024-05-11 00:00;-70;-70;
2024-05-11 00:10;-69;-70;
2024-05-11 00:20;-68;-70;
2024-05-11 00:30;-69;-70;
2024-05-11 00:40;-71;-71;
2024-05-11 00:50;-75;-71;
2024-05-11 01:00;-78;-72;
2024-05-11 01:10;-82;-72;
2024-05-11 01:20;-84;-71;
2024-05-11 01:30;-85;-71;
2024-05-11 01:40;-83;-70;
2024-05-11 01:50;-80;-69;
2024-05-11 02:00;-74;-67;
2024-05-11 02:10;-67;-65;
2024-05-11 02:20;-60;-63;
2024-05-11 02:30;-53;-59;
2024-05-11 02:40;-46;-55;
2024-05-11 02:50;-40;-50;
2024-05-11 03:00;-34;-43;
2024-05-11 03:10;-28;-35;
2024-05-11 03:20;-19;-25;
2024-05-11 03:30;-8;-15;
2024-05-11 03:40;6;-4;
2024-05-11 03:50;25;8;
2024-05-11 04:00;47;20;
2024-05-11 04:10;71;45;
2024-05-11 04:20;96;69;
2024-05-11 04:30;120;96;
2024-05-11 04:40;141;124;
2024-05-11 04:50;157;150;
2024-05-11 05:00;167;169;
2024-05-11 05:10;170;179;
2024-05-11 05:20;167;179;
2024-05-11 05:30;159;169;
2024-05-11 05:40;148;153;
2024-05-11 05:50;136;136;
2024-05-11 06:00;124;121;
2024-05-11 06:10;115;109;
2024-05-11 06:20;108;101;
2024-05-11 06:30;104;95;
2024-05-11 06:40;103;93;
2024-05-11 06:50;103;92;
2024-05-11 07:00;103;92;
2024-05-11 07:10;101;92;
2024-05-11 07:20;98;90;
2024-05-11 07:30;93;84;
2024-05-11 07:40;85;77;
2024-05-11 07:50;74;68;
2024-05-11 08:00;63;58;
2024-05-11 08:10;50;47;
2024-05-11 08:20;37;36;
2024-05-11 08:30;25;31;
2024-05-11 08:40;13;23;
2024-05-11 08:50;3;15;
2024-05-11 09:00;-8;6;
2024-05-11 09:10;-18;-2;
2024-05-11 09:20;-27;-10;
2024-05-11 09:30;-36;-17;
2024-05-11 09:40;-45;-25;
2024-05-11 09:50;-53;-32;
2024-05-11 10:00;-61;-39;
2024-05-11 10:10;-68;-45;
2024-05-11 10:20;-73;-51;
2024-05-11 10:30;-77;-56;
2024-05-11 10:40;-80;-61;
2024-05-11 10:50;-83;-65;
2024-05-11 11:00;-84;-68;
2024-05-11 11:10;-84;-71;
2024-05-11 11:20;-84;-73;
2024-05-11 11:30;-83;-74;
2024-05-11 11:40;-81;-74;
2024-05-11 11:50;-79;-73;
2024-05-11 12:00;-76;-71;
2024-05-11 12:10;-74;-69;
2024-05-11 12:20;-71;-67;
2024-05-11 12:30;-69;-66;
2024-05-11 12:40;-68;-66;
2024-05-11 12:50;-68;-66;
2024-05-11 13:00;-70;-67;
2024-05-11 13:10;-72;-67;
2024-05-11 13:20;-75;-68;
2024-05-11 13:30;-79;-68;
2024-05-11 13:40;-81;-68;
2024-05-11 13:50;-83;-67;
2024-05-11 14:00;-82;-66;
2024-05-11 14:10;-80;-65;
2024-05-11 14:20;-77;-64;
2024-05-11 14:30;-72;-62;
2024-05-11 14:40;-66;-61;
2024-05-11 14:50;-61;-59;
2024-05-11 15:00;-55;-57;
2024-05-11 15:10;-51;-54;
2024-05-11 15:20;-46;-50;
2024-05-11 15:30;-40;-45;
2024-05-11 15:40;-34;-38;
2024-05-11 15:50;-25;-30;
2024-05-11 16:00;-12;-19;
2024-05-11 16:10;3;-8;
2024-05-11 16:20;22;4;
2024-05-11 16:30;44;16;
2024-05-11 16:40;66;35;
2024-05-11 16:50;88;59;
2024-05-11 17:00;107;84;
2024-05-11 17:10;123;108;
2024-05-11 17:20;133;130;
2024-05-11 17:30;138;147;
2024-05-11 17:40;138;154;
2024-05-11 17:50;133;153;
2024-05-11 18:00;126;144;
2024-05-11 18:10;116;130;
2024-05-11 18:20;107;115;
2024-05-11 18:30;99;101;
2024-05-11 18:40;93;90;
2024-05-11 18:50;89;82;
2024-05-11 19:00;87;78;
2024-05-11 19:10;86;75;
2024-05-11 19:20;85;73;
2024-05-11 19:30;83;71;
2024-05-11 19:40;79;70;
2024-05-11 19:50;74;66;
2024-05-11 20:00;67;60;
2024-05-11 20:10;58;53;
2024-05-11 20:20;48;45;
2024-05-11 20:30;38;36;
2024-05-11 20:40;27;27;
2024-05-11 20:50;16;23;
2024-05-11 21:00;6;15;
2024-05-11 21:10;-5;6;
2024-05-11 21:20;-15;-3;
2024-05-11 21:30;-26;-11;
2024-05-11 21:40;-36;-19;
2024-05-11 21:50;-47;-26;
2024-05-11 22:00;-57;-34;
2024-05-11 22:10;-66;-41;
2024-05-11 22:20;-75;-47;
2024-05-11 22:30;-82;-54;
2024-05-11 22:40;-88;-59;
2024-05-11 22:50;-93;-64;
2024-05-11 23:00;-96;-69;
2024-05-11 23:10;-97;-73;
2024-05-11 23:20;-97;-76;
2024-05-11 23:30;-97;-79;
2024-05-11 23:40;-95;-81;
2024-05-11 23:50;-93;-82;
2024-05-12 00:00;-91;-82;
2024-05-12 00:10;-88;-81;
2024-05-12 00:20;-84;-80;
2024-05-12 00:30;-81;-78;
2024-05-12 00:40;-78;-77;
2024-05-12 00:50;-76;-76;
2024-05-12 01:00;-76;-75;
2024-05-12 01:10;-76;-76;
2024-05-12 01:20;-78;-76;
2024-05-12 01:30;-80;-76;
2024-05-12 01:40;-84;-76;
2024-05-12 01:50;-87;-76;
2024-05-12 02:00;-89;-76;
2024-05-12 02:10;-91;-75;
2024-05-12 02:20;-90;-74;
2024-05-12 02:30;-87;-72;
2024-05-12 02:40;-82;-70;
2024-05-12 02:50;-76;-68;
2024-05-12 03:00;-69;-65;
2024-05-12 03:10;-61;-62;
2024-05-12 03:20;-53;-59;
2024-05-12 03:30;-45;-54;
2024-05-12 03:40;-37;-47;
2024-05-12 03:50;-28;-39;
2024-05-12 04:00;-18;-30;
2024-05-12 04:10;-7;-19;
2024-05-12 04:20;8;-8;
2024-05-12 04:30;25;5;
2024-05-12 04:40;45;16;
2024-05-12 04:50;67;40;
2024-05-12 05:00;90;64;
2024-05-12 05:10;111;90;
2024-05-12 05:20;130;117;
2024-05-12 05:30;145;142;
2024-05-12 05:40;155;161;
2024-05-12 05:50;159;170;
2024-05-12 06:00;158;171;
2024-05-12 06:10;153;162;
2024-05-12 06:20;144;147;
2024-05-12 06:30;135;131;
2024-05-12 06:40;125;118;
2024-05-12 06:50;117;107;
2024-05-12 07:00;111;99;
2024-05-12 07:10;107;93;
2024-05-12 07:20;104;91;
2024-05-12 07:30;103;90;
2024-05-12 07:40;102;90;
2024-05-12 07:50;100;89;
2024-05-12 08:00;96;87;
2024-05-12 08:10;91;82;
2024-05-12 08:20;83;75;
2024-05-12 08:30;74;67;
2024-05-12 08:40;64;59;
2024-05-12 08:50;53;50;
2024-05-12 09:00;42;40;
2024-05-12 09:10;31;30;
2024-05-12 09:20;21;26;
2024-05-12 09:30;11;17;
2024-05-12 09:40;2;9;
2024-05-12 09:50;-7;1;
2024-05-12 10:00;-16;-7;
2024-05-12 10:10;-25;-15;
2024-05-12 10:20;-33;-22;
2024-05-12 10:30;-41;-29;
2024-05-12 10:40;-48;-36;
2024-05-12 10:50;-55;-42;
2024-05-12 11:00;-61;-48;
2024-05-12 11:10;-66;-53;
2024-05-12 11:20;-69;-58;
2024-05-12 11:30;-72;-63;
2024-05-12 11:40;-74;-66;
2024-05-12 11:50;-76;-70;
2024-05-12 12:00;-76;-72;
2024-05-12 12:10;-76;-74;
2024-05-12 12:20;-75;-75;
2024-05-12 12:30;-74;-74;
2024-05-12 12:40;-72;-73;
2024-05-12 12:50;-70;-71;
2024-05-12 13:00;-68;-70;
2024-05-12 13:10;-66;-69;
2024-05-12 13:20;-65;-69;
2024-05-12 13:30;-65;-70;
2024-05-12 13:40;-66;-70;
2024-05-12 13:50;-68;-70;
2024-05-12 14:00;-70;-71;
2024-05-12 14:10;-73;-70;
2024-05-12 14:20;-75;-69;
2024-05-12 14:30;-77;-68;
2024-05-12 14:40;-77;-67;
2024-05-12 14:50;-76;-66;
2024-05-12 15:00;-73;-64;
2024-05-12 15:10;-69;-63;
2024-05-12 15:20;-64;-61;
2024-05-12 15:30;-58;-59;
2024-05-12 15:40;-52;-57;
2024-05-12 15:50;-46;-55;
2024-05-12 16:00;-40;-51;
2024-05-12 16:10;-34;-46;
2024-05-12 16:20;-26;-40;
2024-05-12 16:30;-17;-33;
2024-05-12 16:40;-6;-23;
2024-05-12 16:50;8;-13;
2024-05-12 17:00;23;-1;
2024-05-12 17:10;40;10;
2024-05-12 17:20;58;20;
2024-05-12 17:30;76;43;
2024-05-12 17:40;91;64;
2024-05-12 17:50;104;85;
2024-05-12 18:00;113;104;
2024-05-12 18:10;118;120;
2024-05-12 18:20;119;128;
2024-05-12 18:30;117;130;
2024-05-12 18:40;112;124;
2024-05-12 18:50;105;115;
2024-05-12 19:00;98;103;
2024-05-12 19:10;92;91;
2024-05-12 19:20;87;82;
2024-05-12 19:30;83;74;
2024-05-12 19:40;81;69;
2024-05-12 19:50;78;65;
2024-05-12 20:00;76;62;
2024-05-12 20:10;74;60;
2024-05-12 20:20;70;56;
2024-05-12 20:30;65;52;
2024-05-12 20:40;59;47;
2024-05-12 20:50;51;41;
2024-05-12 21:00;42;34;
2024-05-12 21:10;33;26;
2024-05-12 21:20;24;22;
2024-05-12 21:30;14;14;
2024-05-12 21:40;4;6;
2024-05-12 21:50;-5;-2;
2024-05-12 22:00;-15;-10;
2024-05-12 22:10;-25;-18;
2024-05-12 22:20;-35;-26;
2024-05-12 22:30;-45;-35;
2024-05-12 22:40;-55;-42;
2024-05-12 22:50;-64;-50;
2024-05-12 23:00;-72;-57;
2024-05-12 23:10;-80;-63;
2024-05-12 23:20;-86;-69;
2024-05-12 23:30;-91;-75;
2024-05-12 23:40;-95;-80;
2024-05-12 23:50;-98;-84;
2024-05-13 00:00;-99;-88;
2024-05-13 00:10;-100;-92;
2024-05-13 00:20;-99;-95;
2024-05-13 00:30;-98;-97;
2024-05-13 00:40;-97;-98;
2024-05-13 00:50;-95;-98;
2024-05-13 01:00;-92;-97;
2024-05-13 01:10;-90;-96;
2024-05-13 01:20;-87;-95;
2024-05-13 01:30;-85;-93;
2024-05-13 01:40;-84;-92;
2024-05-13 01:50;-83;-91;
2024-05-13 02:00;-84;-91;
2024-05-13 02:10;-85;-91;
2024-05-13 02:20;-87;-90;
2024-05-13 02:30;-89;-90;
2024-05-13 02:40;-91;-88;
2024-05-13 02:50;-92;-87;
2024-05-13 03:00;-91;-85;
2024-05-13 03:10;-89;-83;